Caldwell, NJ

8:09 PM EST on November 22, 2019 (GMT -0500)
Essex County

Weather History for KCDW - September, 2019

Change the Weather History Date:

Sunday, September 22, 2019

  Actual Average Record
Temperature  
Mean Temperature 72 °F -  
Max Temperature 90 °F 72 °F 88 °F (1965)
Min Temperature 55 °F 51 °F 34 °F (1962)
Cooling Degree Days 7    
Growing Degree Days 22 (Base 50)    
Moisture  
Dew Point 61 °F    
Average Humidity 69    
Maximum Humidity 96    
Minimum Humidity 42    
Precipitation  
Precipitation 0.00 in - - ()
Sea Level Pressure  
Sea Level Pressure 30.12 in    
Wind  
Wind Speed 1 mph ()    
Max Wind Speed 7 mph    
Max Gust Speed -    
Visibility 9.5 miles    
Events      
Averages and records for this station are not official NWS values.
T = Trace of Precipitation, MM = Missing Value Source: Averaged Metar Reports

Daily Weather History Graph

Daily Weather History Graph

Search for Another Location

Airport or City:

Astronomy

Sep. 22, 2019 Rise Set
Actual Time 6:44 AM EDT 6:54 PM EDT
Civil Twilight 6:16 AM EDT 7:22 PM EDT
Nautical Twilight 5:44 AM EDT 7:54 PM EDT
Astronomical Twilight 5:12 AM EDT 8:26 PM EDT
Moon No Moon Rise 2:50 PM EDT (9/22)
Length of Visible Light 13h 05m
Length of Day
12h 10m
Last Quarter, 44% of the Moon is Illuminated
Sep 22
Last Quarter
Sep 28
New
Oct 5
First Quarter
Oct 13
Full
Oct 21
Last Quarter

Hourly Weather History & Observations

Time (EDT) Temp. Heat Index Dew Point Humidity Pressure Visibility Wind Dir Wind Speed Gust Speed Precip Events Conditions
12:53 AM 61.0 °F - 57.9 °F 90% 30.20 in 10.0 mi Calm Calm - N/A   Clear
1:53 AM 60.1 °F - 57.0 °F 90% 30.20 in 10.0 mi Calm Calm - N/A   Clear
2:53 AM 57.9 °F - 55.9 °F 93% 30.19 in 8.0 mi Calm Calm - N/A   Clear
3:53 AM 57.9 °F - 55.9 °F 93% 30.19 in 8.0 mi Calm Calm - N/A   Clear
4:53 AM 57.0 °F - 55.0 °F 93% 30.19 in 9.0 mi Calm Calm - N/A   Clear
5:53 AM 55.9 °F - 54.0 °F 93% 30.19 in 7.0 mi Calm Calm - N/A   Clear
6:53 AM 55.0 °F - 54.0 °F 96% 30.19 in 6.0 mi Calm Calm - N/A   Clear
7:53 AM 57.9 °F - 55.9 °F 93% 30.21 in 9.0 mi Calm Calm - N/A   Clear
8:53 AM 64.0 °F - 57.9 °F 80% 30.20 in 10.0 mi Calm Calm - N/A   Clear
9:53 AM 71.1 °F - 60.1 °F 68% 30.19 in 10.0 mi Calm Calm - N/A   Clear
10:53 AM 78.1 °F - 61.0 °F 56% 30.17 in 10.0 mi Calm Calm - N/A   Clear
11:53 AM 82.9 °F 83.7 °F 62.1 °F 49% 30.15 in 10.0 mi Variable 4.6 mph - N/A   Clear
12:53 PM 86.0 °F 86.8 °F 63.0 °F 46% 30.14 in 10.0 mi Variable 4.6 mph - N/A   Clear
1:53 PM 87.1 °F 87.8 °F 63.0 °F 44% 30.11 in 10.0 mi Variable 6.9 mph - N/A   Clear
2:53 PM 88.0 °F 88.7 °F 63.0 °F 43% 30.08 in 10.0 mi WSW 5.8 mph - N/A   Clear
3:53 PM 89.1 °F 90.0 °F 63.0 °F 42% 30.06 in 10.0 mi Variable 6.9 mph - N/A   Partly Cloudy
4:53 PM 88.0 °F 88.7 °F 63.0 °F 43% 30.04 in 10.0 mi Variable 4.6 mph - N/A   Clear
5:53 PM 87.1 °F 88.3 °F 64.0 °F 46% 30.04 in 10.0 mi Variable 4.6 mph - N/A   Clear
6:53 PM 84.9 °F 86.6 °F 64.9 °F 51% 30.04 in 10.0 mi Calm Calm - N/A   Clear
7:53 PM 80.1 °F 82.1 °F 66.0 °F 62% 30.04 in 10.0 mi Calm Calm - N/A   Clear
8:53 PM 81.0 °F 83.0 °F 66.0 °F 60% 30.04 in 10.0 mi Variable 4.6 mph - N/A   Clear
9:53 PM 79.0 °F - 66.9 °F 66% 30.04 in 10.0 mi WSW 3.5 mph - N/A   Clear
10:53 PM 75.9 °F - 66.9 °F 74% 30.03 in 10.0 mi Calm Calm - N/A   Clear
11:53 PM 73.9 °F - 66.9 °F 79% 30.01 in 10.0 mi Calm Calm - N/A   Clear